sat.trackr.live / text

‹ back to catalog

HAWK-B

NORAD 43794 · 2018-099AN

PAYLOAD ACTIVE UNKNOWN

§ Identity

Operator
Country
US
Launch date
2018-12-03
Launch site
AFWTR
Launch vehicle
Mass (kg)
RCS (m²)

Purposes: tech_demo

External: N2YO · Heavens-Above · Gunter

§ Orbital elements

Epoch: 2026-05-25T02:33:33.534432Z

Period
94.58 min
Inclination
97.3981°
Eccentricity
0.0032774
Mean motion
15.22516431 rev/d
Perigee alt
475.7 km
Apogee alt
520.8 km
Semi-major
6,876.4 km
B*
2.4643e-4
RAAN
197.1098°
Arg perigee
27.6289°
Mean anomaly
332.6680°
Rev number
40,952

§ Raw data

HAWK-B1 43794U 18099AN  26145.10663813  .00005725  00000+0  24643-3 0  99902 43794  97.3981 197.1098 0032774  27.6289 332.6680 15.22516431409526

JSON: /api/v1/satellites/43794 · /tle

For live sub-satellite position, see the globe view (requires WebGL).

§ Visibility from observer

Set your observer location to see the next 7 days of passes ≥ 10°. The values pass through the URL so the page stays shareable.

No JS? Fill the form by hand. The geolocation button needs JavaScript.